When you browse on this site, cookies collect data to enhance your experience and personalize the content and advertising you see.
Visit our Privacy Policy to learn more. By continuing to use the site, you agree to this use of cookies and data.
  • In Romania
  • List of Countries
  • For 7 days
  • Water Temperature
  • Satellite Maps
  • Weather Map
  • Weather Widgets
  • user-avatar
    Login

    Hourly Weather Lillehammer

    Today, 19 July, Friday

    Time Temperature Precipitation Wind Pressure Humidity
    00:00 +10°C° 0 mm 2 mps 713 mmHg 96%
    01:00 +10°C° 0 mm 1 mps 713 mmHg 97%
    02:00 +10°C° 0 mm 1 mps 713 mmHg 98%
    03:00 +10°C° 0 mm 1 mps 713 mmHg 98%
    04:00 +10°C° 0 mm 1 mps 713 mmHg 98%
    05:00 +11°C° 0.1 mm 1 mps 713 mmHg 96%
    06:00 +10°C° 0.1 mm 2 mps 713 mmHg 95%
    07:00 +12°C° 0.1 mm 2 mps 713 mmHg 93%
    08:00 +12°C° 0.1 mm 2 mps 713 mmHg 94%
    09:00 +12°C° 0.1 mm 2 mps 713 mmHg 96%
    10:00 +12°C° 0.1 mm 2 mps 713 mmHg 97%
    11:00 +13°C° 0.1 mm 3 mps 713 mmHg 91%
    12:00 +14°C° 0.1 mm 3 mps 713 mmHg 85%
    13:00 +17°C° 0.1 mm 4 mps 713 mmHg 78%
    14:00 +17°C° 0.6 mm 4 mps 713 mmHg 80%
    15:00 +17°C° 0.6 mm 4 mps 713 mmHg 82%
    16:00 +17°C° 0.6 mm 3 mps 713 mmHg 83%
    17:00 +17°C° 0.3 mm 3 mps 713 mmHg 84%
    18:00 +16°C° 0.3 mm 2 mps 713 mmHg 86%
    19:00 +16°C° 0.3 mm 2 mps 714 mmHg 87%
    20:00 +14°C° 0.1 mm 1 mps 714 mmHg 90%
    21:00 +13°C° 0.1 mm 1 mps 714 mmHg 92%
    22:00 +11°C° 0.1 mm 1 mps 714 mmHg 95%
    23:00 +11°C° 0 mm 1 mps 714 mmHg 96%

    Tomorrow, 20 July, Saturday

    Time Temperature Precipitation Wind Pressure Humidity
    00:00 +11°C° 0 mm 1 mps 714 mmHg 97%
    01:00 +10°C° 0 mm 1 mps 714 mmHg 98%
    02:00 +11°C° 0 mm 1 mps 714 mmHg 98%
    03:00 +11°C° 0 mm 1 mps 714 mmHg 98%
    04:00 +11°C° 0 mm 1 mps 714 mmHg 99%
    05:00 +12°C° 0.3 mm 1 mps 714 mmHg 98%
    06:00 +13°C° 0.3 mm 1 mps 714 mmHg 98%
    07:00 +13°C° 0.3 mm 1 mps 714 mmHg 98%
    08:00 +14°C° 0.5 mm 2 mps 714 mmHg 98%
    09:00 +14°C° 0.5 mm 2 mps 714 mmHg 97%
    10:00 +14°C° 0.5 mm 2 mps 714 mmHg 97%
    11:00 +16°C° 0.2 mm 3 mps 714 mmHg 88%
    12:00 +17°C° 0.2 mm 3 mps 714 mmHg 80%
    13:00 +18°C° 0.2 mm 3 mps 714 mmHg 71%
    14:00 +19°C° 0 mm 4 mps 714 mmHg 64%
    15:00 +20°C° 0 mm 4 mps 714 mmHg 57%
    16:00 +20°C° 0 mm 5 mps 714 mmHg 50%
    17:00 +19°C° 0 mm 4 mps 714 mmHg 56%
    18:00 +18°C° 0 mm 4 mps 714 mmHg 63%
    19:00 +17°C° 0 mm 3 mps 714 mmHg 69%
    20:00 +16°C° 0.1 mm 2 mps 714 mmHg 75%
    21:00 +15°C° 0.1 mm 2 mps 714 mmHg 81%
    22:00 +14°C° 0.1 mm 2 mps 714 mmHg 86%
    23:00 +13°C° 0.1 mm 1 mps 714 mmHg 89%

    Day after tomorrow, 21 July, Sunday

    Time Temperature Precipitation Wind Pressure Humidity
    00:00 +13°C° 0.1 mm 1 mps 714 mmHg 91%
    01:00 +13°C° 0.1 mm 1 mps 714 mmHg 93%
    02:00 +13°C° 0.1 mm 1 mps 713 mmHg 93%
    03:00 +13°C° 0.1 mm 1 mps 713 mmHg 92%
    04:00 +12°C° 0.1 mm 1 mps 713 mmHg 92%
    05:00 +13°C° 0.1 mm 1 mps 713 mmHg 92%
    06:00 +13°C° 0.1 mm 1 mps 712 mmHg 93%
    07:00 +13°C° 0.1 mm 1 mps 712 mmHg 93%
    08:00 +14°C° 0.2 mm 1 mps 712 mmHg 93%
    09:00 +14°C° 0.2 mm 1 mps 712 mmHg 93%
    10:00 +14°C° 0.2 mm 1 mps 712 mmHg 92%
    11:00 +14°C° 0.4 mm 1 mps 712 mmHg 93%
    12:00 +14°C° 0.4 mm 1 mps 713 mmHg 94%
    13:00 +14°C° 0.4 mm 1 mps 713 mmHg 95%
    14:00 +14°C° 0.2 mm 1 mps 713 mmHg 95%
    15:00 +14°C° 0.2 mm 1 mps 713 mmHg 94%
    16:00 +14°C° 0.2 mm 0 mps 713 mmHg 94%
    17:00 +14°C° 0.1 mm 0 mps 713 mmHg 94%
    18:00 +14°C° 0.1 mm 0 mps 713 mmHg 95%
    19:00 +14°C° 0.1 mm 0 mps 714 mmHg 95%
    20:00 +14°C° 0.2 mm 1 mps 714 mmHg 96%
    21:00 +14°C° 0.2 mm 1 mps 714 mmHg 96%
    22:00 +13°C° 0.2 mm 1 mps 715 mmHg 97%
    23:00 +13°C° 0.6 mm 2 mps 715 mmHg 97%

    22 July, Monday

    Time Temperature Precipitation Wind Pressure Humidity
    00:00 +13°C° 0.6 mm 2 mps 715 mmHg 97%
    01:00 +13°C° 0.6 mm 2 mps 715 mmHg 97%
    02:00 +13°C° 0.6 mm 2 mps 716 mmHg 96%
    03:00 +13°C° 0.6 mm 2 mps 716 mmHg 96%
    04:00 +11°C° 0.6 mm 3 mps 716 mmHg 95%
    05:00 +13°C° 0 mm 2 mps 717 mmHg 93%
    06:00 +13°C° 0 mm 2 mps 717 mmHg 90%
    07:00 +13°C° 0 mm 2 mps 717 mmHg 87%
    08:00 +15°C° 0 mm 1 mps 717 mmHg 78%
    09:00 +18°C° 0 mm 1 mps 717 mmHg 69%
    10:00 +18°C° 0 mm 0 mps 718 mmHg 59%
    11:00 +21°C° 0 mm 1 mps 718 mmHg 57%
    12:00 +22°C° 0 mm 1 mps 718 mmHg 54%
    13:00 +23°C° 0 mm 1 mps 718 mmHg 51%
    14:00 +23°C° 0 mm 2 mps 718 mmHg 49%
    15:00 +23°C° 0 mm 2 mps 718 mmHg 48%
    16:00 +24°C° 0 mm 3 mps 718 mmHg 46%
    17:00 +22°C° 0 mm 3 mps 717 mmHg 51%
    18:00 +21°C° 0 mm 3 mps 717 mmHg 55%
    19:00 +20°C° 0 mm 3 mps 717 mmHg 59%
    20:00 +19°C° 0 mm 2 mps 717 mmHg 63%
    21:00 +17°C° 0 mm 2 mps 717 mmHg 68%
    22:00 +16°C° 0 mm 2 mps 717 mmHg 73%
    23:00 +15°C° 0 mm 1 mps 717 mmHg 75%

    23 July, Tuesday

    Time Temperature Precipitation Wind Pressure Humidity
    00:00 +15°C° 0 mm 1 mps 718 mmHg 78%
    01:00 +15°C° 0 mm 1 mps 718 mmHg 81%
    02:00 +15°C° 0 mm 1 mps 718 mmHg 83%
    03:00 +14°C° 0 mm 1 mps 718 mmHg 85%
    04:00 +14°C° 0 mm 1 mps 718 mmHg 87%
    05:00 +15°C° 0 mm 1 mps 718 mmHg 84%
    06:00 +16°C° 0 mm 1 mps 718 mmHg 82%
    07:00 +16°C° 0 mm 1 mps 718 mmHg 80%
    08:00 +20°C° 0 mm 1 mps 719 mmHg 71%
    09:00 +21°C° 0 mm 2 mps 719 mmHg 63%
    10:00 +24°C° 0 mm 2 mps 719 mmHg 54%
    11:00 +26°C° 0 mm 3 mps 719 mmHg 49%
    12:00 +27°C° 0 mm 3 mps 719 mmHg 43%
    13:00 +29°C° 0 mm 4 mps 719 mmHg 37%
    14:00 +29°C° 0 mm 4 mps 719 mmHg 35%
    15:00 +29°C° 0 mm 4 mps 719 mmHg 33%
    16:00 +30°C° 0 mm 4 mps 719 mmHg 31%
    17:00 +29°C° 0 mm 3 mps 719 mmHg 38%
    18:00 +28°C° 0 mm 2 mps 719 mmHg 45%
    19:00 +26°C° 0 mm 2 mps 719 mmHg 52%
    20:00 +24°C° 0 mm 1 mps 719 mmHg 58%
    21:00 +21°C° 0 mm 1 mps 719 mmHg 65%
    22:00 +19°C° 0 mm 1 mps 719 mmHg 72%
    23:00 +18°C° 0 mm 1 mps 719 mmHg 76%

    24 July, Wednesday

    Time Temperature Precipitation Wind Pressure Humidity
    00:00 +16°C° 0 mm 1 mps 719 mmHg 80%
    01:00 +16°C° 0 mm 1 mps 719 mmHg 83%
    02:00 +14°C° 0 mm 0 mps 719 mmHg 85%
    03:00 +14°C° 0 mm 0 mps 719 mmHg 88%
    04:00 +13°C° 0 mm 0 mps 718 mmHg 90%
    05:00 +15°C° 0 mm 0 mps 719 mmHg 84%
    06:00 +16°C° 0 mm 0 mps 719 mmHg 78%
    07:00 +18°C° 0 mm 0 mps 719 mmHg 72%
    08:00 +22°C° 0 mm 1 mps 719 mmHg 64%
    09:00 +24°C° 0 mm 1 mps 719 mmHg 56%
    10:00 +26°C° 0 mm 1 mps 720 mmHg 48%
    11:00 +27°C° 0 mm 1 mps 720 mmHg 44%
    12:00 +28°C° 0 mm 2 mps 720 mmHg 39%
    13:00 +29°C° 0 mm 2 mps 720 mmHg 34%
    14:00 +30°C° 0 mm 2 mps 720 mmHg 33%
    15:00 +30°C° 0 mm 2 mps 720 mmHg 32%
    16:00 +30°C° 0 mm 2 mps 720 mmHg 31%
    17:00 +29°C° 0 mm 2 mps 719 mmHg 38%
    18:00 +28°C° 0 mm 2 mps 719 mmHg 45%
    19:00 +27°C° 0 mm 2 mps 719 mmHg 51%
    20:00 +24°C° 0 mm 2 mps 719 mmHg 61%
    21:00 +22°C° 0 mm 1 mps 719 mmHg 71%
    22:00 +19°C° 0 mm 1 mps 719 mmHg 81%
    23:00 +18°C° 0 mm 1 mps 719 mmHg 84%
    Show more